Skip Page Navigation
NASA JPL Caltech
NASA Logo - Jet Propulsion Laboratory + View the NASA Portal
+ Center for Near-Earth Object Studies
JPL Home Earth Solar System Stars & Galaxies Technology
JPL Solar System Dynamics
BODIES ORBITS EPHEMERIDES TOOLS PHYSICAL DATA DISCOVERY FAQ SITE MAP
JPL Small-Body Database Browser
Search: [ help ]  
351653 (2005 YL151)
Classification: Main-belt Asteroid          SPK-ID: 2351653
Ephemeris | Orbit Diagram | Orbital Elements | Mission Design | Physical Parameters | Discovery Circumstances ]

[ show orbit diagram ]
Orbital Elements at Epoch 2459000.5 (2020-May-31.0) TDB
Reference: JPL 19 (heliocentric ecliptic J2000)
 Element Value Uncertainty (1-sigma)   Units 
e .1705660517094743 6.092e-08  
a 2.385824168892594 2.0448e-08 au
q 1.978883560331546 1.3784e-07 au
i 5.75860998394188 6.4309e-06 deg
node 86.52115768713472 5.1819e-05 deg
peri 186.5405875389526 5.4947e-05 deg
M 181.5623775388418 1.6537e-05 deg
tp 2459667.675369351652
(2022-Mar-29.17536935)
6.1769e-05 TDB
period 1346.03414713664
3.69
1.7305e-05
4.738e-08
d
yr
n .2674523530965485 3.4384e-09 deg/d
Q 2.792764777453641 2.3936e-08 au
  Orbit Determination Parameters
   # obs. used (total)      215  
   data-arc span      6640 days (18.18 yr)  
   first obs. used      2001-11-16  
   last obs. used      2020-01-21  
   planetary ephem.      DE431  
   SB-pert. ephem.      SB431-N16  
   condition code      0  
   norm. resid. RMS      .61071  
   source      ORB  
   producer      Otto Matic  
   solution date      2020-Feb-25 23:56:24  

Additional Information
 Earth MOID = .962734 au 
 Jupiter MOID = 2.31218 au 
 T_jup = 3.509 
[ hide covariance matrix ]
Orbital Elements at Epoch 2457658.5 (2016-Sep-27.0) TDB
Reference: JPL 19 (heliocentric ecliptic J2000)
 Element Value Uncertainty (1-sigma)   Units 
e .1710743846826459 6.0692e-08  
q 1.976865818243206 1.3728e-07 au
tp 2458321.906524752598
(2018-Jul-22.40652475)
6.3035e-05 TDB
node 86.539504922859 5.1847e-05 deg
peri 186.6094743432919 5.498e-05 deg
i 5.757909526769679 6.4302e-06 deg
  Orbit Determination Parameters
   # obs. used (total)      215  
   data-arc span      6640 days (18.18 yr)  
   first obs. used      2001-11-16  
   last obs. used      2020-01-21  
   planetary ephem.      DE431  
   SB-pert. ephem.      SB431-N16  
   condition code      0  
   norm. resid. RMS      .61071  
   source      ORB  
   producer      Otto Matic  
   solution date      2020-Feb-25 23:56:24  

Additional Information
 Jupiter MOID = 2.31218 au 
 T_jup = 3.509 
Orbit Covariance (6×6)
  e q tp node peri i
e 3.683562188505907E-15 -8.283613897702875E-15 -2.050681441106667E-12 3.786607610851944E-14 -6.676581529306936E-13 -1.143860142424693E-15
q -8.283613897702875E-15 1.884646673903733E-14 4.660097068216578E-12 -8.858785856539638E-14 1.486474739807391E-12 2.722241020635217E-15
tp -2.050681441106667E-12 4.660097068216578E-12 3.973399263904194E-9 -4.0100386255449E-11 1.170102029767225E-9 3.075527056495443E-12
node 3.786607610851944E-14 -8.858785856539638E-14 -4.0100386255449E-11 2.688096876839263E-9 -2.685063094431324E-9 -1.502080693418934E-10
peri -6.676581529306936E-13 1.486474739807391E-12 1.170102029767225E-9 -2.685063094431324E-9 3.022774833663379E-9 1.502419622745787E-10
i -1.143860142424693E-15 2.722241020635217E-15 3.075527056495443E-12 -1.502080693418934E-10 1.502419622745787E-10 4.134704556789789E-11

Ephemeris | Orbit Diagram | Orbital Elements | Mission Design | Physical Parameters | Discovery Circumstances ]

Physical Parameter Table
Parameter Symbol Value Units Sigma Reference Notes
absolute magnitude H 16.7   n/a MPO455545  

351653 (2005 YL151)          Discovered 2005-Dec-25 by Spacewatch at Kitt Peak
Reference: 20130127/Numbers.arcLast Updated: 2013-01-31
Ephemeris | Orbit Diagram | Orbital Elements | Mission Design | Physical Parameters | Discovery Circumstances ]
ABOUT SSD CREDITS/AWARDS PRIVACY/COPYRIGHT GLOSSARY LINKS
FirstGov 2020-Aug-04 18:18 UT
(server date/time)  
NASA Home Page
Site Manager:   Ryan S. Park
Webmaster  Alan B. Chamberlin